TimeEST,TemperatureF,Dew PointF,Humidity,Sea Level PressureIn,VisibilityMPH,Wind Direction,Wind SpeedMPH,Gust SpeedMPH,PrecipitationIn,Events,Conditions,WindDirDegrees,DateUTC
12:53 AM,35.1,32.0,89,30.14,-9999.0,Calm,Calm,-,N/A,,Unknown,0,2013-03-05 05:53:00
1:53 AM,35.1,32.0,89,30.14,-9999.0,Calm,Calm,-,N/A,,Unknown,0,2013-03-05 06:53:00
2:53 AM,37.0,34.0,89,30.12,-9999.0,Calm,Calm,-,N/A,,Unknown,0,2013-03-05 07:53:00
3:53 AM,37.0,33.1,86,30.14,-9999.0,Calm,Calm,-,N/A,,Unknown,0,2013-03-05 08:53:00
4:53 AM,37.9,34.0,86,30.13,-9999.0,Calm,Calm,-,N/A,,Unknown,0,2013-03-05 09:53:00
5:53 AM,36.0,32.0,86,30.16,-9999.0,Calm,Calm,-,N/A,,Unknown,0,2013-03-05 10:53:00
6:53 AM,37.0,33.1,86,30.16,-9999.0,Calm,Calm,-,N/A,,Unknown,0,2013-03-05 11:53:00
7:53 AM,42.1,39.0,89,30.17,-9999.0,Calm,Calm,-,N/A,,Unknown,0,2013-03-05 12:53:00
8:53 AM,54.0,44.1,69,30.17,-9999.0,SSE,5.8,-,N/A,,Unknown,160,2013-03-05 13:53:00
9:53 AM,63.0,48.9,60,30.17,-9999.0,SSW,6.9,-,N/A,,Unknown,210,2013-03-05 14:53:00
10:53 AM,68.0,52.0,56,30.15,-9999.0,SSW,9.2,17.3,N/A,,Unknown,210,2013-03-05 15:53:00
11:53 AM,71.1,51.1,49,30.12,-9999.0,SSW,16.1,19.6,N/A,,Unknown,210,2013-03-05 16:53:00
12:53 PM,73.0,52.0,48,30.10,-9999.0,WSW,15.0,23.0,N/A,,Unknown,240,2013-03-05 17:53:00
1:53 PM,73.0,53.1,49,30.09,-9999.0,SW,9.2,21.9,N/A,,Unknown,220,2013-03-05 18:53:00
2:53 PM,73.0,54.0,51,30.06,-9999.0,SSW,15.0,25.3,N/A,,Unknown,210,2013-03-05 19:53:00
3:53 PM,71.1,54.0,55,30.04,-9999.0,SSW,18.4,26.5,N/A,,Unknown,210,2013-03-05 20:53:00
4:53 PM,70.0,54.0,57,30.03,-9999.0,SSW,12.7,25.3,N/A,,Unknown,210,2013-03-05 21:53:00
5:53 PM,66.9,55.0,66,30.01,-9999.0,SSW,16.1,27.6,N/A,,Unknown,200,2013-03-05 22:53:00
6:53 PM,64.9,55.9,73,30.01,-9999.0,SSW,12.7,23.0,N/A,,Unknown,200,2013-03-05 23:53:00
7:53 PM,64.0,57.0,78,29.99,-9999.0,SSW,12.7,-,N/A,,Unknown,210,2013-03-06 00:53:00
8:53 PM,64.0,57.9,80,29.99,-9999.0,SSW,15.0,24.2,0.01,,Unknown,210,2013-03-06 01:53:00
9:53 PM,64.9,59.0,81,29.99,-9999.0,SW,15.0,24.2,N/A,,Unknown,220,2013-03-06 02:53:00
10:53 PM,64.9,60.1,84,29.98,-9999.0,SW,10.4,18.4,N/A,,Unknown,220,2013-03-06 03:53:00
11:53 PM,66.0,61.0,84,29.96,-9999.0,SW,12.7,19.6,N/A,,Unknown,230,2013-03-06 04:53:00